When you browse on this site, cookies collect data to enhance your experience and personalize the content and advertising you see.
Visit our Privacy Policy to learn more. By continuing to use the site, you agree to this use of cookies and data.
  • In Austria
  • List of Countries
  • For 7 days
  • Water Temperature
  • Satellite Maps
  • Weather Map
  • News
  • Weather Widgets
  • user-avatar
    Login

    Hourly Weather Guarda

    Today, 25 March, Monday

    Time Temperature Precipitation Wind Pressure Humidity
    00:00 +10°C° 0 mm 1 mps 690 mmHg 63%
    01:00 +8°C° 0 mm 2 mps 690 mmHg 64%
    02:00 +7°C° 0 mm 2 mps 690 mmHg 66%
    03:00 +7°C° 0 mm 2 mps 689 mmHg 67%
    04:00 +6°C° 0 mm 2 mps 689 mmHg 70%
    05:00 +4°C° 0 mm 3 mps 689 mmHg 74%
    06:00 +5°C° 0 mm 2 mps 689 mmHg 78%
    07:00 +5°C° 0 mm 3 mps 690 mmHg 73%
    08:00 +8°C° 0 mm 3 mps 690 mmHg 68%
    09:00 +9°C° 0 mm 3 mps 690 mmHg 62%
    10:00 +11°C° 0 mm 4 mps 690 mmHg 57%
    11:00 +14°C° 0 mm 4 mps 691 mmHg 51%
    12:00 +17°C° 0 mm 4 mps 691 mmHg 45%
    13:00 +16°C° 0 mm 5 mps 690 mmHg 42%
    14:00 +17°C° 0 mm 5 mps 690 mmHg 39%
    15:00 +19°C° 0 mm 5 mps 690 mmHg 36%
    16:00 +16°C° 0 mm 5 mps 689 mmHg 40%
    17:00 +15°C° 0 mm 5 mps 689 mmHg 44%
    18:00 +14°C° 0 mm 5 mps 688 mmHg 48%
    19:00 +12°C° 0 mm 5 mps 688 mmHg 51%
    20:00 +9°C° 0 mm 5 mps 688 mmHg 54%
    21:00 +7°C° 0 mm 5 mps 688 mmHg 57%
    22:00 +6°C° 0 mm 5 mps 688 mmHg 58%
    23:00 +5°C° 0 mm 5 mps 688 mmHg 59%

    Tomorrow, 26 March, Tuesday

    Time Temperature Precipitation Wind Pressure Humidity
    00:00 +3°C° 0 mm 6 mps 688 mmHg 60%
    01:00 +2°C° 0 mm 6 mps 688 mmHg 62%
    02:00 +2°C° 0 mm 6 mps 688 mmHg 64%
    03:00 +1°C° 0 mm 6 mps 687 mmHg 66%
    04:00 +1°C° 0 mm 6 mps 687 mmHg 70%
    05:00 -1°C° 0 mm 6 mps 687 mmHg 74%
    06:00 -1°C° 0 mm 6 mps 687 mmHg 78%
    07:00 +2°C° 0 mm 6 mps 687 mmHg 72%
    08:00 +3°C° 0 mm 6 mps 688 mmHg 66%
    09:00 +5°C° 0 mm 7 mps 688 mmHg 60%
    10:00 +8°C° 0 mm 7 mps 688 mmHg 53%
    11:00 +10°C° 0 mm 7 mps 688 mmHg 46%
    12:00 +12°C° 0 mm 7 mps 688 mmHg 39%
    13:00 +14°C° 0 mm 6 mps 688 mmHg 38%
    14:00 +15°C° 0 mm 6 mps 687 mmHg 37%
    15:00 +16°C° 0 mm 5 mps 687 mmHg 36%
    16:00 +15°C° 0 mm 5 mps 687 mmHg 40%
    17:00 +15°C° 0 mm 4 mps 687 mmHg 45%
    18:00 +14°C° 0 mm 3 mps 687 mmHg 49%
    19:00 +12°C° 0 mm 3 mps 687 mmHg 49%
    20:00 +10°C° 0 mm 4 mps 687 mmHg 49%
    21:00 +8°C° 0 mm 4 mps 688 mmHg 48%
    22:00 +6°C° 0 mm 4 mps 688 mmHg 48%
    23:00 +5°C° 0 mm 4 mps 688 mmHg 48%

    Day after tomorrow, 27 March, Wednesday

    Time Temperature Precipitation Wind Pressure Humidity
    00:00 +4°C° 0 mm 3 mps 688 mmHg 49%
    01:00 +4°C° 0 mm 3 mps 688 mmHg 51%
    02:00 +3°C° 0 mm 3 mps 689 mmHg 54%
    03:00 +2°C° 0 mm 3 mps 689 mmHg 56%
    04:00 +1°C° 0 mm 3 mps 689 mmHg 60%
    05:00 +1°C° 0 mm 3 mps 689 mmHg 63%
    06:00 0°C° 0 mm 3 mps 689 mmHg 67%
    07:00 +2°C° 0 mm 3 mps 690 mmHg 63%
    08:00 +4°C° 0 mm 3 mps 690 mmHg 60%
    09:00 +7°C° 0 mm 3 mps 691 mmHg 56%
    10:00 +9°C° 0 mm 3 mps 691 mmHg 50%
    11:00 +11°C° 0 mm 3 mps 692 mmHg 45%
    12:00 +13°C° 0 mm 3 mps 692 mmHg 39%
    13:00 +14°C° 0 mm 3 mps 692 mmHg 37%
    14:00 +16°C° 0 mm 3 mps 692 mmHg 34%
    15:00 +17°C° 0 mm 3 mps 692 mmHg 32%
    16:00 +16°C° 0 mm 3 mps 691 mmHg 37%
    17:00 +14°C° 0 mm 3 mps 691 mmHg 41%
    18:00 +13°C° 0 mm 3 mps 691 mmHg 46%
    19:00 +11°C° 0 mm 3 mps 691 mmHg 49%
    20:00 +9°C° 0 mm 3 mps 691 mmHg 52%
    21:00 +7°C° 0 mm 3 mps 691 mmHg 55%
    22:00 +5°C° 0 mm 3 mps 691 mmHg 57%
    23:00 +5°C° 0 mm 3 mps 692 mmHg 60%

    28 March, Thursday

    Time Temperature Precipitation Wind Pressure Humidity
    00:00 +4°C° 0 mm 3 mps 692 mmHg 62%
    01:00 +3°C° 0 mm 3 mps 692 mmHg 64%
    02:00 +2°C° 0 mm 3 mps 692 mmHg 65%
    03:00 +2°C° 0 mm 3 mps 692 mmHg 67%
    04:00 +1°C° 0 mm 3 mps 692 mmHg 70%
    05:00 +1°C° 0 mm 3 mps 692 mmHg 73%
    06:00 0°C° 0 mm 3 mps 692 mmHg 76%
    07:00 +2°C° 0 mm 3 mps 692 mmHg 71%
    08:00 +4°C° 0 mm 3 mps 693 mmHg 67%
    09:00 +7°C° 0 mm 3 mps 694 mmHg 62%
    10:00 +9°C° 0 mm 3 mps 694 mmHg 55%
    11:00 +11°C° 0 mm 3 mps 694 mmHg 49%
    12:00 +13°C° 0 mm 3 mps 694 mmHg 42%
    13:00 +15°C° 0 mm 2 mps 694 mmHg 41%
    14:00 +16°C° 0 mm 2 mps 693 mmHg 39%
    15:00 +16°C° 0 mm 2 mps 693 mmHg 38%
    16:00 +16°C° 0 mm 2 mps 692 mmHg 43%
    17:00 +15°C° 0 mm 2 mps 692 mmHg 48%
    18:00 +14°C° 0 mm 2 mps 692 mmHg 53%
    19:00 +12°C° 0 mm 1 mps 692 mmHg 57%
    20:00 +10°C° 0 mm 1 mps 692 mmHg 61%
    21:00 +8°C° 0 mm 1 mps 692 mmHg 65%
    22:00 +8°C° 0 mm 1 mps 692 mmHg 66%
    23:00 +7°C° 0 mm 1 mps 692 mmHg 67%

    29 March, Friday

    Time Temperature Precipitation Wind Pressure Humidity
    00:00 +7°C° 0 mm 1 mps 692 mmHg 68%
    01:00 +6°C° 0 mm 1 mps 692 mmHg 70%
    02:00 +6°C° 0 mm 1 mps 691 mmHg 71%
    03:00 +5°C° 0 mm 1 mps 691 mmHg 72%
    04:00 +5°C° 0 mm 1 mps 691 mmHg 74%
    05:00 +5°C° 0 mm 1 mps 691 mmHg 75%
    06:00 +4°C° 0 mm 1 mps 691 mmHg 76%
    07:00 +6°C° 0 mm 1 mps 692 mmHg 69%
    08:00 +9°C° 0 mm 1 mps 692 mmHg 62%
    09:00 +11°C° 0 mm 1 mps 693 mmHg 54%
    10:00 +12°C° 0 mm 1 mps 693 mmHg 49%
    11:00 +14°C° 0 mm 1 mps 693 mmHg 44%
    12:00 +16°C° 0 mm 1 mps 693 mmHg 39%
    13:00 +16°C° 0 mm 1 mps 692 mmHg 38%
    14:00 +18°C° 0 mm 1 mps 692 mmHg 37%
    15:00 +18°C° 0 mm 1 mps 691 mmHg 36%
    16:00 +16°C° 0 mm 1 mps 691 mmHg 41%
    17:00 +15°C° 0 mm 1 mps 690 mmHg 46%
    18:00 +14°C° 0 mm 1 mps 690 mmHg 52%
    19:00 +12°C° 0 mm 1 mps 690 mmHg 53%
    20:00 +11°C° 0 mm 1 mps 690 mmHg 55%
    21:00 +9°C° 0 mm 1 mps 690 mmHg 56%
    22:00 +9°C° 0 mm 1 mps 690 mmHg 54%
    23:00 +9°C° 0 mm 1 mps 690 mmHg 52%

    30 March, Saturday

    Time Temperature Precipitation Wind Pressure Humidity
    00:00 +9°C° 0 mm 1 mps 690 mmHg 50%
    01:00 +8°C° 0 mm 1 mps 690 mmHg 54%
    02:00 +7°C° 0 mm 1 mps 689 mmHg 57%
    03:00 +6°C° 0 mm 1 mps 689 mmHg 61%
    04:00 +6°C° 0 mm 1 mps 689 mmHg 63%
    05:00 +6°C° 0 mm 1 mps 689 mmHg 65%
    06:00 +5°C° 0 mm 1 mps 689 mmHg 68%
    07:00 +7°C° 0 mm 1 mps 689 mmHg 62%
    08:00 +9°C° 0 mm 1 mps 690 mmHg 57%
    09:00 +11°C° 0 mm 1 mps 690 mmHg 51%
    10:00 +13°C° 0 mm 1 mps 690 mmHg 48%
    11:00 +14°C° 0 mm 2 mps 690 mmHg 45%
    12:00 +16°C° 0 mm 2 mps 690 mmHg 42%
    13:00 +16°C° 0 mm 2 mps 689 mmHg 41%
    14:00 +17°C° 0 mm 2 mps 689 mmHg 40%
    15:00 +17°C° 0 mm 2 mps 688 mmHg 39%
    16:00 +16°C° 0 mm 1 mps 688 mmHg 44%
    17:00 +15°C° 0 mm 1 mps 688 mmHg 49%
    18:00 +14°C° 0 mm 1 mps 687 mmHg 53%
    19:00 +12°C° 0 mm 0 mps 687 mmHg 56%
    20:00 +10°C° 0 mm 0 mps 687 mmHg 59%
    21:00 +8°C° 0 mm 0 mps 687 mmHg 62%
    22:00 +8°C° 0 mm 0 mps 687 mmHg 63%
    23:00 +8°C° 0 mm 1 mps 687 mmHg 64%
    Show more